EW5655 Weather Reports


time (UTC)temp
C
wind
direction
speed
KPH
gust
KPH
rain 1hr
cm
rain 24hr
cm
rain mn
cm
humidity
%
barometer
mb
20260507201005 26 17 1.6 16.1 0.00 0.00 0.00 18 1015.9
20260507200504 26 133 3.2 16.1 0.00 0.00 0.00 18 1016.1
20260507200002 26 194 6.4 11.3 0.00 0.00 0.00 18 1016.1
20260507195501 26 167 3.2 12.9 0.00 0.00 0.00 18 1016.2
20260507195001 26 210 8.0 14.5 0.00 0.00 0.00 18 1016.2
20260507194613 26 130 6.4 14.5 0.00 0.00 0.00 18 1016.3
20260507194059 26 187 6.4 16.1 0.00 0.00 0.00 18 1016.4
20260507193600 26 272 8.0 16.1 0.00 0.00 0.00 19 1016.4
20260507193100 26 186 3.2 12.9 0.00 0.00 0.00 20 1016.5
20260507192556 25 148 4.8 17.7 0.00 0.00 0.00 18 1016.6
20260507192056 26 195 9.7 17.7 0.00 0.00 0.00 19 1016.6
20260507191602 25 123 9.7 16.1 0.00 0.00 0.00 19 1016.6
20260507191054 25 215 8.0 12.9 0.00 0.00 0.00 19 1016.8
20260507190553 25 169 3.2 16.1 0.00 0.00 0.00 19 1016.8
20260507190053 25 168 11.3 16.1 0.00 0.00 0.00 19 1016.9
20260507185552 25 148 4.8 12.9 0.00 0.00 0.00 20 1017.0
20260507185053 25 175 3.2 16.1 0.00 0.00 0.00 19 1017.0
20260507184550 25 163 8.0 16.1 0.00 0.00 0.00 20 1017.0
20260507184051 24 132 8.0 14.5 0.00 0.00 0.00 21 1017.1
20260507183549 25 184 4.8 9.7 0.00 0.00 0.00 22 1017.1
20260507183055 25 216 3.2 9.7 0.00 0.00 0.00 22 1017.2
20260507182548 25 56 3.2 12.9 0.00 0.00 0.00 22 1017.2
20260507182047 24 297 6.4 12.9 0.00 0.00 0.00 22 1017.3
20260507181547 24 203 4.8 11.3 0.00 0.00 0.00 24 1017.4
20260507181045 23 234 4.8 11.3 0.00 0.00 0.00 23 1017.4
20260507180547 23 221 3.2 11.3 0.00 0.00 0.00 23 1017.5
20260507180050 23 192 4.8 12.9 0.00 0.00 0.00 23 1017.5
20260507175541 23 191 4.8 12.9 0.00 0.00 0.00 24 1017.6
20260507175039 23 276 6.4 11.3 0.00 0.00 0.00 24 1017.7
20260507174538 23 217 4.8 11.3 0.00 0.00 0.00 24 1017.7
20260507174037 23 146 1.6 11.3 0.00 0.00 0.00 26 1017.8
20260507173538 23 176 4.8 11.3 0.00 0.00 0.00 26 1017.8
20260507173046 22 227 4.8 12.9 0.00 0.00 0.00 25 1017.9
20260507172532 22 189 3.2 9.7 0.00 0.00 0.00 25 1017.9
20260507172031 22 159 3.2 11.3 0.00 0.00 0.00 26 1017.9
20260507171533 22 191 6.4 11.3 0.00 0.00 0.00 26 1017.9
20260507171029 22 184 4.8 9.7 0.00 0.00 0.00 27 1018.0
20260507170530 21 263 6.4 9.7 0.00 0.00 0.00 26 1018.1
20260507170042 21 214 3.2 8.0 0.00 0.00 0.00 27 1018.2
20260507165524 21 235 1.6 8.0 0.00 0.00 0.00 29 1018.2
20260507165023 21 196 4.8 9.7 0.00 0.00 0.00 27 1018.2
20260507164523 21 234 4.8 9.7 0.00 0.00 0.00 27 1018.2
20260507164021 21 198 3.2 11.3 0.00 0.00 0.00 30 1018.2
20260507163520 20 177 3.2 11.3 0.00 0.00 0.00 29 1018.4
20260507163017 20 171 4.8 11.3 0.00 0.00 0.00 30 1018.4
20260507162517 20 276 4.8 12.9 0.00 0.00 0.00 29 1018.4
20260507162017 21 231 6.4 12.9 0.00 0.00 0.00 30 1018.5
20260507161514 20 41 3.2 9.7 0.00 0.00 0.00 27 1018.6
20260507161012 20 42 3.2 8.0 0.00 0.00 0.00 30 1018.7
20260507160512 19 17 1.6 8.0 0.00 0.00 0.00 30 1018.7
20260507160010 19 360 3.2 9.7 0.00 0.00 0.00 31 1018.8
20260507155509 18 7 0.0 9.7 0.00 0.00 0.00 31 1018.8
20260507155007 18 14 0.0 8.0 0.00 0.00 0.00 31 1018.9
20260507154507 18 72 3.2 11.3 0.00 0.00 0.00 33 1018.8
20260507154004 18 59 4.8 11.3 0.00 0.00 0.00 34 1018.8
20260507153504 17 38 0.0 9.7 0.00 0.00 0.00 34 1018.8
20260507153001 17 347 3.2 9.7 0.00 0.00 0.00 35 1018.9
20260507152601 17 316 4.8 9.7 0.00 0.00 0.00 35 1018.9
20260507152059 17 19 4.8 9.7 0.00 0.00 0.00 34 1018.9
20260507151558 17 45 1.6 9.7 0.00 0.00 0.00 36 1018.9
20260507151055 16 355 4.8 9.7 0.00 0.00 0.00 36 1018.9
20260507150555 16 55 4.8 9.7 0.00 0.00 0.00 38 1018.9
20260507150100 16 24 4.8 11.3 0.00 0.00 0.00 38 1018.9
20260507145551 16 41 4.8 12.9 0.00 0.00 0.00 38 1019.0
20260507145049 15 2 6.4 12.9 0.00 0.00 0.00 38 1018.9
20260507144548 15 35 3.2 12.9 0.00 0.00 0.00 40 1019.0
20260507144048 15 38 4.8 12.9 0.00 0.00 0.00 40 1019.1
20260507143546 15 39 4.8 12.9 0.00 0.00 0.00 41 1019.1
20260507143057 14 44 3.2 11.3 0.00 0.00 0.00 41 1019.0
20260507142543 14 33 3.2 11.3 0.00 0.00 0.00 41 1019.1
20260507142042 13 24 3.2 11.3 0.00 0.00 0.00 41 1019.1
20260507141542 13 15 3.2 9.7 0.00 0.00 0.00 41 1019.2
20260507141041 13 44 1.6 9.7 0.00 0.00 0.00 42 1019.2
20260507140541 13 33 1.6 11.3 0.00 0.00 0.00 42 1019.1
20260507140041 13 28 3.2 11.3 0.00 0.00 0.00 42 1019.2
20260507135544 13 32 1.6 11.3 0.00 0.00 0.00 43 1019.1
20260507135039 12 63 4.8 9.7 0.00 0.00 0.00 44 1019.1
20260507134539 12 55 4.8 9.7 0.00 0.00 0.00 44 1019.1
20260507134037 12 79 3.2 11.3 0.00 0.00 0.00 44 1019.0
20260507133537 12 49 4.8 11.3 0.00 0.00 0.00 44 1018.9
20260507133044 12 47 1.6 9.7 0.00 0.00 0.00 44 1018.8
20260507132535 12 44 3.2 11.3 0.00 0.00 0.00 44 1018.7
20260507132034 11 19 3.2 11.3 0.00 0.00 0.00 44 1018.6
20260507131540 11 3 3.2 11.3 0.00 0.00 0.00 44 1018.5
20260507131033 11 30 6.4 11.3 0.00 0.00 0.00 44 1018.5
20260507130532 11 15 6.4 12.9 0.00 0.00 0.00 44 1018.4
20260507130036 11 11 6.4 12.9 0.00 0.00 0.00 44 1018.4
20260507125530 11 24 3.2 12.9 0.00 0.00 0.00 43 1018.4
20260507125030 10 53 4.8 9.7 0.00 0.00 0.00 43 1018.4
20260507124530 10 19 1.6 11.3 0.00 0.00 0.00 42 1018.4
20260507124030 11 20 4.8 11.3 0.00 0.00 0.00 42 1018.4
20260507123528 10 8 4.8 9.7 0.00 0.00 0.00 42 1018.2
20260507123026 10 36 3.2 8.0 0.00 0.00 0.00 42 1018.2
20260507122526 10 30 3.2 8.0 0.00 0.00 0.00 41 1018.2
20260507122026 10 38 1.6 6.4 0.00 0.00 0.00 40 1018.2
20260507121526 10 36 3.2 9.7 0.00 0.00 0.00 39 1018.1
20260507121025 10 7 3.2 11.3 0.00 0.00 0.00 39 1018.1
20260507120523 10 31 4.8 11.3 0.00 0.00 0.00 39 1018.1
20260507120023 10 32 1.6 9.7 0.00 0.00 0.00 39 1018.1
20260507115526 10 38 3.2 8.0 0.00 0.00 0.00 38 1018.0
20260507115021 10 57 3.2 9.7 0.00 0.00 0.00 37 1017.9
20260507114521 10 47 4.8 9.7 0.00 0.00 0.00 36 1018.0
20260507114019 10 32 1.6 9.7 0.00 0.00 0.00 35 1017.9
20260507113519 10 48 1.6 8.0 0.00 0.00 0.00 34 1018.0
20260507113025 10 66 1.6 4.8 0.00 0.00 0.00 34 1017.9
20260507112519 10 56 0.0 8.0 0.00 0.00 0.00 32 1017.9
20260507112018 10 58 3.2 8.0 0.00 0.00 0.00 33 1017.9
20260507111518 10 49 1.6 8.0 0.00 0.00 0.00 32 1017.9
20260507111015 10 63 3.2 8.0 0.00 0.00 0.00 32 1018.0
20260507110514 10 65 3.2 9.7 0.00 0.00 0.00 31 1018.0
20260507110014 10 42 1.6 9.7 0.00 0.00 0.00 30 1017.9
20260507105511 11 46 0.0 4.8 0.00 0.00 0.00 30 1018.0
20260507105011 11 46 0.0 3.2 0.00 0.00 0.00 29 1017.8
20260507104510 11 46 0.0 3.2 0.00 0.00 0.00 29 1017.8
20260507104010 11 46 0.0 6.4 0.00 0.00 0.00 29 1017.8
20260507103509 11 46 1.6 6.4 0.00 0.00 0.00 28 1017.8
20260507103009 11 46 1.6 3.2 0.00 0.00 0.00 29 1017.7
20260507102508 11 46 0.0 8.0 0.00 0.00 0.00 28 1017.8
20260507102008 11 46 1.6 9.7 0.00 0.00 0.00 28 1017.8
20260507101507 11 58 3.2 9.7 0.00 0.00 0.00 28 1017.7
20260507101005 12 51 1.6 6.4 0.00 0.00 0.00 27 1017.6
20260507100506 12 49 0.0 11.3 0.00 0.00 0.00 26 1017.5
20260507100010 12 51 3.2 12.9 0.00 0.00 0.00 26 1017.5
20260507095506 13 7 6.4 12.9 0.00 0.00 0.00 25 1017.4
20260507095003 13 49 6.4 11.3 0.00 0.00 0.00 25 1017.4
20260507094502 13 38 4.8 12.9 0.00 0.00 0.00 24 1017.4
20260507094002 13 31 4.8 12.9 0.00 0.00 0.00 24 1017.3
20260507093501 13 11 6.4 14.5 0.00 0.00 0.00 23 1017.3
20260507093003 13 355 6.4 11.3 0.00 0.00 0.00 23 1017.3
20260507092502 13 17 1.6 9.7 0.00 0.00 0.00 23 1017.3
20260507092100 13 10 4.8 11.3 0.00 0.00 0.00 23 1017.3
20260507091600 13 3 4.8 11.3 0.00 0.00 0.00 24 1017.2
20260507091100 12 17 3.2 8.0 0.00 0.00 0.00 28 1017.3
20260507090600 12 16 0.0 1.6 0.00 0.00 0.00 30 1017.3
20260507090101 12 16 0.0 3.2 0.00 0.00 0.00 29 1017.3
20260507085556 12 16 0.0 3.2 0.00 0.00 0.00 27 1017.3
20260507085056 13 16 0.0 3.2 0.00 0.00 0.00 26 1017.3
20260507084605 13 15 0.0 6.4 0.00 0.00 0.00 25 1017.3
20260507084055 13 13 0.0 8.0 0.00 0.00 0.00 23 1017.3
20260507083557 14 13 3.2 9.7 0.00 0.00 0.00 22 1017.2
20260507083055 13 20 4.8 9.7 0.00 0.00 0.00 23 1017.2
20260507082555 14 36 3.2 11.3 0.00 0.00 0.00 23 1017.2
20260507082054 14 14 3.2 8.0 0.00 0.00 0.00 22 1017.2
20260507081558 13 22 1.6 4.8 0.00 0.00 0.00 23 1017.3
20260507081054 13 30 1.6 6.4 0.00 0.00 0.00 26 1017.3
20260507080553 13 30 1.6 8.0 0.00 0.00 0.00 25 1017.4
20260507080055 13 27 1.6 8.0 0.00 0.00 0.00 24 1017.2
20260507075557 13 14 3.2 9.7 0.00 0.00 0.00 23 1017.2
20260507075052 14 15 4.8 11.3 0.00 0.00 0.00 23 1017.2
20260507074552 14 14 4.8 11.3 0.00 0.00 0.00 22 1017.2
20260507074051 15 18 4.8 11.3 0.00 0.00 0.00 22 1017.2
20260507073549 14 6 4.8 11.3 0.00 0.00 0.00 22 1017.2
20260507073049 14 14 4.8 8.0 0.00 0.00 0.00 23 1017.4
20260507072548 13 26 1.6 4.8 0.00 0.00 0.00 23 1017.4
20260507072048 13 59 0.0 6.4 0.00 0.00 0.00 25 1017.4
20260507071549 13 59 0.0 3.2 0.00 0.00 0.00 24 1017.5
20260507071047 13 59 0.0 8.0 0.00 0.00 0.00 26 1017.5
20260507070547 13 59 0.0 8.0 0.00 0.00 0.00 27 1017.4
20260507070101 13 34 0.0 6.4 0.00 0.00 0.00 27 1017.4
20260507065545 13 33 0.0 3.2 0.00 0.00 0.00 27 1017.4
20260507065044 13 33 0.0 1.6 0.00 0.00 0.00 27 1017.4
20260507064551 13 33 0.0 8.0 0.00 0.00 0.00 26 1017.4
20260507064043 13 33 0.0 8.0 0.00 0.00 0.00 26 1017.4
20260507063542 14 21 0.0 6.4 0.00 0.00 0.00 24 1017.5
20260507063042 13 21 1.6 6.4 0.00 0.00 0.00 24 1017.4
20260507062545 13 22 0.0 6.4 0.00 0.00 0.00 26 1017.4
20260507062041 13 22 0.0 6.4 0.00 0.00 0.00 26 1017.4
20260507061540 14 22 0.0 6.4 0.00 0.00 0.00 25 1017.5
20260507061038 15 22 0.0 6.4 0.00 0.00 0.00 22 1017.5
20260507060539 15 22 3.2 6.4 0.00 0.00 0.00 22 1017.5
20260507060037 14 28 0.0 3.2 0.00 0.00 0.00 23 1017.6
20260507055536 14 28 0.0 6.4 0.00 0.00 0.00 24 1017.6
20260507055035 14 28 0.0 6.4 0.00 0.00 0.00 23 1017.6
20260507054545 15 25 1.6 4.8 0.00 0.00 0.00 23 1017.5
20260507054034 15 25 0.0 3.2 0.00 0.00 0.00 22 1017.3
20260507053536 15 25 0.0 3.2 0.00 0.00 0.00 22 1017.3
20260507053034 15 24 0.0 6.4 0.00 0.00 0.00 21 1017.3
20260507052533 16 24 1.6 6.4 0.00 0.00 0.00 20 1017.3
20260507052033 16 30 1.6 6.4 0.00 0.00 0.00 20 1017.3
20260507051534 15 7 3.2 4.8 0.00 0.00 0.00 21 1017.3
20260507051033 15 269 0.0 1.6 0.00 0.00 0.00 24 1017.3
20260507050534 16 269 0.0 6.4 0.00 0.00 0.00 23 1017.3
20260507050042 16 269 1.6 8.0 0.00 0.00 0.00 20 1017.3
20260507045532 16 17 0.0 6.4 0.00 0.00 0.00 21 1017.2
20260507045032 16 340 0.0 6.4 0.00 0.00 0.00 20 1017.2
20260507044534 16 1 0.0 8.0 0.00 0.00 0.00 19 1017.1
20260507044031 16 22 3.2 8.0 0.00 0.00 0.00 20 1017.1
20260507043531 16 355 1.6 3.2 0.00 0.00 0.00 22 1017.1
20260507043030 16 38 0.0 6.4 0.00 0.00 0.00 21 1017.1
20260507042531 16 30 0.0 3.2 0.00 0.00 0.00 19 1017.1
20260507042031 16 30 0.0 6.4 0.00 0.00 0.00 19 1016.9
20260507041530 17 30 0.0 4.8 0.00 0.00 0.00 19 1016.9
20260507041030 17 330 0.0 3.2 0.00 0.00 0.00 18 1016.9
20260507040529 17 329 0.0 3.2 0.00 0.00 0.00 18 1016.9
20260507040038 18 329 0.0 11.3 0.00 0.00 0.00 17 1016.8
20260507035530 17 281 1.6 11.3 0.00 0.00 0.00 16 1016.7
20260507035030 18 227 1.6 8.0 0.00 0.00 0.00 16 1016.7
20260507034530 18 229 1.6 12.9 0.00 0.00 0.00 15 1016.6
20260507034029 19 229 4.8 16.1 0.00 0.00 0.00 15 1016.6
20260507033529 18 276 8.0 16.1 0.00 0.00 0.00 15 1016.4
20260507033029 18 313 3.2 11.3 0.00 0.00 0.00 17 1016.5
20260507032528 18 276 1.6 6.4 0.00 0.00 0.00 17 1016.5
20260507032028 18 254 3.2 8.0 0.00 0.00 0.00 16 1016.4
20260507031530 18 276 1.6 11.3 0.00 0.00 0.00 15 1016.4
20260507031028 18 263 6.4 11.3 0.00 0.00 0.00 14 1016.3
20260507030529 18 342 1.6 3.2 0.00 0.00 0.00 17 1016.3
20260507030028 18 342 0.0 3.2 0.00 0.00 0.00 18 1016.2
20260507025528 18 342 1.6 8.0 0.00 0.00 0.00 15 1016.2
20260507025028 19 296 1.6 8.0 0.00 0.00 0.00 14 1016.0
20260507024533 20 276 1.6 11.3 0.00 0.00 0.00 13 1015.9
20260507024027 20 232 4.8 12.9 0.00 0.00 0.00 13 1015.8
20260507023527 20 240 4.8 12.9 0.00 0.00 0.00 13 1015.7
20260507023026 20 254 8.0 12.9 0.00 0.00 0.00 13 1015.6
20260507022527 20 257 6.4 12.9 0.00 0.00 0.00 13 1015.6
20260507022027 20 198 4.8 12.9 0.00 0.00 0.00 13 1015.5
20260507021533 20 221 6.4 14.5 0.00 0.00 0.00 14 1015.5
20260507021026 20 248 8.0 14.5 0.00 0.00 0.00 12 1015.5
20260507020526 21 220 6.4 14.5 0.00 0.00 0.00 13 1015.4
20260507020027 21 198 8.0 14.5 0.00 0.00 0.00 12 1015.4
20260507015526 21 211 6.4 12.9 0.00 0.00 0.00 12 1015.3
20260507015026 21 249 8.0 16.1 0.00 0.00 0.00 12 1015.3
20260507014529 21 197 9.7 20.9 0.00 0.00 0.00 11 1015.3
20260507014024 21 252 11.3 20.9 0.00 0.00 0.00 11 1015.2
20260507013525 22 206 11.3 20.9 0.00 0.00 0.00 11 1015.2
20260507013025 22 244 9.7 22.5 0.00 0.00 0.00 11 1015.2
20260507012525 22 257 12.9 22.5 0.00 0.00 0.00 11 1015.1
20260507012027 22 247 11.3 20.9 0.00 0.00 0.00 11 1015.1
20260507011525 22 251 9.7 20.9 0.00 0.00 0.00 11 1015.2
20260507011023 22 276 11.3 24.1 0.00 0.00 0.00 11 1015.1
20260507010527 22 267 11.3 24.1 0.00 0.00 0.00 11 1015.1
20260507010031 22 246 12.9 24.1 0.00 0.00 0.00 11 1015.0
20260507005524 22 240 12.9 29.0 0.00 0.00 0.00 11 1015.0
20260507005023 22 321 12.9 29.0 0.00 0.00 0.00 11 1014.9
20260507004522 23 236 16.1 29.0 0.00 0.00 0.00 11 1014.9
20260507004023 23 296 11.3 24.1 0.00 0.00 0.00 11 1014.9
20260507003524 23 281 12.9 24.1 0.00 0.00 0.00 12 1014.8
20260507003022 23 247 14.5 25.7 0.00 0.00 0.00 11 1014.8
20260507002521 23 257 16.1 25.7 0.00 0.00 0.00 11 1014.8
20260507002022 23 245 11.3 32.2 0.00 0.00 0.00 11 1014.7
20260507001522 23 223 14.5 32.2 0.00 0.00 0.00 12 1014.7
20260507001023 23 252 14.5 24.1 0.00 0.00 0.00 11 1014.7
20260507000522 23 305 12.9 24.1 0.00 0.00 0.00 11 1014.7
20260507000026 23 246 11.3 22.5 0.00 0.00 0.00 12 1014.6
20260506235521 23 281 12.9 20.9 0.00 0.00 0.00 12 1014.6
20260506235019 23 213 11.3 24.1 0.00 0.00 0.00 12 1014.6
20260506234520 23 253 16.1 24.1 0.00 0.00 0.00 12 1014.6
20260506234019 23 303 14.5 25.7 0.00 0.00 0.00 12 1014.5
20260506233520 23 257 16.1 30.6 0.00 0.00 0.00 11 1014.6
20260506233020 23 257 19.3 30.6 0.00 0.00 0.00 11 1014.6
20260506232518 23 257 12.9 29.0 0.00 0.00 0.00 11 1014.6
20260506232118 23 236 16.1 35.4 0.00 0.00 0.00 11 1014.7
20260506231520 24 248 17.7 30.6 0.00 0.00 0.00 11 1014.6
20260506231019 23 255 12.9 30.6 0.00 0.00 0.00 11 1014.6
20260506230517 23 248 12.9 25.7 0.00 0.00 0.00 12 1014.6
20260506230019 23 267 16.1 25.7 0.00 0.00 0.00 11 1014.6
20260506225516 23 296 12.9 32.2 0.00 0.00 0.00 11 1014.6
20260506225016 23 244 19.3 32.2 0.00 0.00 0.00 11 1014.7
20260506224516 23 256 17.7 30.6 0.00 0.00 0.00 11 1014.7
20260506224014 23 232 14.5 30.6 0.00 0.00 0.00 11 1014.7
20260506223514 24 221 14.5 33.8 0.00 0.00 0.00 12 1014.8
20260506223014 23 241 19.3 33.8 0.00 0.00 0.00 12 1014.8
20260506222514 23 228 14.5 32.2 0.00 0.00 0.00 12 1014.8
20260506222014 24 281 19.3 30.6 0.00 0.00 0.00 11 1014.9
20260506221513 23 200 16.1 32.2 0.00 0.00 0.00 11 1014.8
20260506221012 24 215 17.7 32.2 0.00 0.00 0.00 11 1014.9
20260506220513 23 267 12.9 29.0 0.00 0.00 0.00 12 1014.9
20260506220012 23 227 14.5 29.0 0.00 0.00 0.00 13 1014.9
20260506215512 23 244 12.9 24.1 0.00 0.00 0.00 14 1014.9
20260506215010 23 234 14.5 25.7 0.00 0.00 0.00 14 1015.0
20260506214512 24 293 11.3 30.6 0.00 0.00 0.00 13 1015.0
20260506214012 23 281 14.5 29.0 0.00 0.00 0.00 14 1015.1
20260506213510 23 240 14.5 25.7 0.00 0.00 0.00 13 1015.1
20260506213009 23 254 14.5 25.7 0.00 0.00 0.00 14 1015.2
20260506212509 23 250 12.9 20.9 0.00 0.00 0.00 15 1015.1
20260506212010 24 215 8.0 25.7 0.00 0.00 0.00 16 1015.1
20260506211508 23 215 12.9 25.7 0.00 0.00 0.00 16 1015.2
20260506211008 24 263 12.9 22.5 0.00 0.00 0.00 15 1015.3
20260506210508 23 327 12.9 24.1 0.00 0.00 0.00 16 1015.2
20260506210007 23 231 11.3 30.6 0.00 0.00 0.00 15 1015.2
20260506205507 23 211 11.3 37.0 0.00 0.00 0.00 16 1015.3
20260506205006 23 228 8.0 29.0 0.00 0.00 0.00 16 1015.3
20260506204512 23 223 17.7 29.0 0.00 0.00 0.00 17 1015.5
20260506204005 23 232 11.3 37.0 0.00 0.00 0.00 18 1015.4
20260506203505 23 291 11.3 30.6 0.00 0.00 0.00 18 1015.4
20260506203004 23 257 11.3 29.0 0.00 0.00 0.00 19 1015.5
20260506202503 23 212 11.3 29.0 0.00 0.00 0.00 20 1015.6
20260506202003 23 276 9.7 22.5 0.00 0.00 0.00 19 1015.6
20260506201506 22 248 6.4 25.7 0.00 0.00 0.00 18 1015.5